Weather History for Pipestone, MN

Change the Weather History Date:

Saturday, June 29, 2013

  Actual Average Record
Temperature  
Mean Temperature 69 °F -  
Max Temperature 78 °F 78 °F 96 °F (2002)
Min Temperature 60 °F 58 °F 48 °F (1999)
Cooling Degree Days 4    
Growing Degree Days 19 (Base 50)    
Moisture  
Dew Point 54 °F    
Average Humidity 60    
Maximum Humidity 82    
Minimum Humidity 36    
Precipitation  
Precipitation 0.00 in - - ()
Sea Level Pressure  
Sea Level Pressure 29.96 in    
Wind  
Wind Speed 11 mph (North)    
Max Wind Speed 22 mph    
Max Gust Speed 31 mph    
Visibility 10 miles    
Events      
Averages and records for this station are not official NWS values.
T = Trace of Precipitation, MM = Missing Value Source: NWS Daily Summary

Daily Weather History Graph

Daily Weather History Graph

Search for Another Location

Airport:

Trip Planner

Search our weather history database for the weather conditions in past years. The results will help you decide how hot, cold, wet, or windy it might be!

Date:

Astronomy

Jun. 29, 2013 Rise Set
Actual Time 5:45 AM CDT 9:11 PM CDT
Civil Twilight 5:09 AM CDT 9:48 PM CDT
Nautical Twilight 4:21 AM CDT 10:35 PM CDT
Astronomical Twilight 3:21 AM CDT 11:35 PM CDT
Moon 12:26 AM CDT (6/29) 1:14 PM CDT (6/29)
Length of Visible Light 16h 38m
Length of Day
15h 26m
Waning Gibbous, 55% of the Moon is Illuminated
Jun 29
Waning Gibbous
Jun 29
Last Quarter
Jul 8
New
Jul 15
First Quarter
Jul 22
Full

Hourly Weather History & Observations

Time (CDT) Temp. Dew Point Humidity Pressure Visibility Wind Dir Wind Speed Gust Speed Precip Events Conditions
12:13 AM 68.0 °F 53.6 °F 60% 29.92 in 10.0 mi NNW 9.2 mph - N/A   Clear
12:33 AM 68.0 °F 53.6 °F 60% 29.92 in 10.0 mi NNW 9.2 mph - N/A   Clear
12:53 AM 66.2 °F 53.6 °F 64% 29.92 in 10.0 mi NNW 9.2 mph - N/A   Clear
1:14 AM 66.2 °F 55.4 °F 68% 29.92 in 10.0 mi NNW 8.1 mph - N/A   Clear
1:33 AM 64.4 °F 55.4 °F 73% 29.92 in 10.0 mi NNW 8.1 mph - N/A   Clear
1:53 AM 64.4 °F 55.4 °F 73% 29.91 in 10.0 mi NNW 10.4 mph - N/A   Clear
2:14 AM 64.4 °F 55.4 °F 73% 29.91 in 10.0 mi NNW 11.5 mph - N/A   Clear
2:33 AM 64.4 °F 55.4 °F 73% 29.91 in 10.0 mi NNW 10.4 mph - N/A   Clear
2:53 AM 64.4 °F 55.4 °F 73% 29.91 in 10.0 mi NNW 9.2 mph - N/A   Clear
3:13 AM 64.4 °F 55.4 °F 73% 29.91 in 10.0 mi NNW 10.4 mph - N/A   Clear
3:33 AM 64.4 °F 55.4 °F 73% 29.91 in 10.0 mi NNW 10.4 mph - N/A   Clear
3:53 AM 64.4 °F 55.4 °F 73% 29.91 in 10.0 mi NNW 9.2 mph - N/A   Clear
4:13 AM 62.6 °F 55.4 °F 77% 29.91 in 10.0 mi NNW 10.4 mph 17.3 mph N/A   Clear
4:33 AM 62.6 °F 55.4 °F 77% 29.92 in 10.0 mi NNW 9.2 mph - N/A   Clear
4:53 AM 62.6 °F 55.4 °F 77% 29.92 in 10.0 mi NNW 12.7 mph 17.3 mph N/A   Clear
5:13 AM 62.6 °F 55.4 °F 77% 29.92 in 10.0 mi NNW 11.5 mph - N/A   Clear
5:34 AM 62.6 °F 55.4 °F 77% 29.92 in 10.0 mi NNW 11.5 mph 18.4 mph N/A   Clear
5:53 AM 60.8 °F 55.4 °F 82% 29.93 in 10.0 mi NNW 9.2 mph 17.3 mph N/A   Clear
6:13 AM 60.8 °F 55.4 °F 82% 29.93 in 10.0 mi NNW 11.5 mph 16.1 mph N/A   Clear
6:33 AM 60.8 °F 55.4 °F 82% 29.94 in 10.0 mi NNW 12.7 mph - N/A   Clear
6:53 AM 62.6 °F 57.2 °F 82% 29.94 in 10.0 mi NNW 13.8 mph 20.7 mph N/A   Clear
7:13 AM 62.6 °F 57.2 °F 82% 29.94 in 10.0 mi NNW 15.0 mph 19.6 mph N/A   Clear
7:33 AM 62.6 °F 57.2 °F 82% 29.94 in 10.0 mi NNW 16.1 mph 20.7 mph N/A   Clear
7:53 AM 64.4 °F 57.2 °F 77% 29.94 in 10.0 mi NNW 15.0 mph 23.0 mph N/A   Clear
8:13 AM 64.4 °F 57.2 °F 77% 29.94 in 10.0 mi NNW 13.8 mph 25.3 mph N/A   Mostly Cloudy
8:33 AM 64.4 °F 57.2 °F 77% 29.95 in 10.0 mi North 13.8 mph 26.5 mph N/A   Overcast
8:53 AM 64.4 °F 57.2 °F 77% 29.95 in 10.0 mi North 19.6 mph 27.6 mph N/A   Overcast
9:14 AM 66.2 °F 57.2 °F 73% 29.95 in 10.0 mi North 16.1 mph 24.2 mph N/A   Mostly Cloudy
9:33 AM 66.2 °F 57.2 °F 73% 29.96 in 10.0 mi North 15.0 mph 24.2 mph N/A   Mostly Cloudy
9:53 AM 66.2 °F 57.2 °F 73% 29.96 in 10.0 mi NNE 19.6 mph 29.9 mph N/A   Mostly Cloudy
10:14 AM 68.0 °F 55.4 °F 64% 29.96 in 10.0 mi NNE 16.1 mph 25.3 mph N/A   Mostly Cloudy
10:33 AM 69.8 °F 57.2 °F 64% 29.97 in 10.0 mi NNE 19.6 mph 26.5 mph N/A   Scattered Clouds
10:53 AM 69.8 °F 55.4 °F 60% 29.97 in 10.0 mi NNE 17.3 mph 27.6 mph N/A   Scattered Clouds
11:13 AM 69.8 °F 55.4 °F 60% 29.97 in 10.0 mi NNE 19.6 mph 31.1 mph N/A   Scattered Clouds
11:33 AM 71.6 °F 55.4 °F 57% 29.97 in 10.0 mi North 21.9 mph 29.9 mph N/A   Scattered Clouds
11:53 AM 71.6 °F 53.6 °F 53% 29.98 in 10.0 mi NNE 18.4 mph 26.5 mph N/A   Scattered Clouds
12:13 PM 71.6 °F 55.4 °F 57% 29.98 in 10.0 mi NNE 19.6 mph 26.5 mph N/A   Scattered Clouds
12:33 PM 71.6 °F 53.6 °F 53% 29.98 in 10.0 mi North 16.1 mph 24.2 mph N/A   Scattered Clouds
12:53 PM 73.4 °F 53.6 °F 50% 29.98 in 10.0 mi North 15.0 mph 19.6 mph N/A   Scattered Clouds
1:13 PM 73.4 °F 53.6 °F 50% 29.98 in 10.0 mi North 15.0 mph 26.5 mph N/A   Scattered Clouds
1:33 PM 73.4 °F 51.8 °F 47% 29.98 in 10.0 mi North 12.7 mph 23.0 mph N/A   Scattered Clouds
1:53 PM 73.4 °F 53.6 °F 50% 29.98 in 10.0 mi North 13.8 mph 21.9 mph N/A   Scattered Clouds
2:13 PM 75.2 °F 51.8 °F 44% 29.98 in 10.0 mi NNE 11.5 mph 23.0 mph N/A   Mostly Cloudy
2:33 PM 73.4 °F 51.8 °F 47% 29.98 in 10.0 mi NNE 17.3 mph 24.2 mph N/A   Mostly Cloudy
2:53 PM 75.2 °F 48.2 °F 38% 29.98 in 10.0 mi NNE 11.5 mph 23.0 mph N/A   Scattered Clouds
3:13 PM 75.2 °F 50.0 °F 41% 29.98 in 10.0 mi North 10.4 mph 23.0 mph N/A   Scattered Clouds
3:34 PM 77.0 °F 48.2 °F 36% 29.98 in 10.0 mi NNE 15.0 mph 19.6 mph N/A   Clear
3:53 PM 77.0 °F 48.2 °F 36% 29.97 in 10.0 mi NNE 11.5 mph 17.3 mph N/A   Scattered Clouds
4:13 PM 77.0 °F 48.2 °F 36% 29.97 in 10.0 mi NNE 16.1 mph 21.9 mph N/A   Scattered Clouds
4:33 PM 78.8 °F 51.8 °F 39% 29.97 in 10.0 mi NNE 13.8 mph 20.7 mph N/A   Scattered Clouds
4:53 PM 77.0 °F 50.0 °F 39% 29.97 in 10.0 mi North 10.4 mph 16.1 mph N/A   Scattered Clouds
5:13 PM 77.0 °F 50.0 °F 39% 29.97 in 10.0 mi NNE 15.0 mph 19.6 mph N/A   Scattered Clouds
5:33 PM 77.0 °F 50.0 °F 39% 29.97 in 10.0 mi NNE 13.8 mph 24.2 mph N/A   Scattered Clouds
5:53 PM 77.0 °F 51.8 °F 41% 29.97 in 10.0 mi NNE 10.4 mph 24.2 mph N/A   Scattered Clouds
6:13 PM 78.8 °F 51.8 °F 39% 29.97 in 10.0 mi North 12.7 mph 19.6 mph N/A   Scattered Clouds
6:33 PM 77.0 °F 51.8 °F 41% 29.97 in 10.0 mi North 11.5 mph 20.7 mph N/A   Scattered Clouds
6:53 PM 77.0 °F 51.8 °F 41% 29.97 in 10.0 mi North 15.0 mph 26.5 mph N/A   Scattered Clouds
7:14 PM 77.0 °F 51.8 °F 41% 29.97 in 10.0 mi NNE 13.8 mph 19.6 mph N/A   Scattered Clouds
7:33 PM 75.2 °F 51.8 °F 44% 29.97 in 10.0 mi NNE 11.5 mph 18.4 mph N/A   Mostly Cloudy
7:53 PM 75.2 °F 51.8 °F 44% 29.97 in 10.0 mi NNE 10.4 mph 19.6 mph N/A   Scattered Clouds
8:14 PM 73.4 °F 51.8 °F 47% 29.98 in 10.0 mi NE 9.2 mph 17.3 mph N/A   Clear
8:33 PM 73.4 °F 51.8 °F 47% 29.98 in 10.0 mi NNE 6.9 mph - N/A   Scattered Clouds
8:53 PM 73.4 °F 51.8 °F 47% 29.98 in 10.0 mi ENE 6.9 mph - N/A   Scattered Clouds
9:14 PM 71.6 °F 51.8 °F 50% 29.98 in 10.0 mi ENE 3.5 mph - N/A   Clear
9:33 PM 69.8 °F 51.8 °F 53% 29.99 in 10.0 mi NE 4.6 mph - N/A   Clear
9:53 PM 69.8 °F 51.8 °F 53% 30.00 in 10.0 mi NE 4.6 mph - N/A   Clear
10:14 PM 68.0 °F 51.8 °F 56% 30.01 in 10.0 mi NE 3.5 mph - N/A   Clear
10:33 PM 66.2 °F 51.8 °F 60% 30.01 in 10.0 mi NE 3.5 mph - N/A   Clear
10:53 PM 66.2 °F 51.8 °F 60% 30.02 in 10.0 mi NE 4.6 mph - N/A   Clear
11:13 PM 64.4 °F 51.8 °F 64% 30.02 in 10.0 mi ESE 3.5 mph - N/A   Clear
11:33 PM 64.4 °F 51.8 °F 64% 30.02 in 10.0 mi ENE 3.5 mph - N/A   Clear
11:54 PM 64.4 °F 51.8 °F 64% 30.03 in 10.0 mi NE 3.5 mph - N/A   Clear